[[{"header":{"parameterUnit":"m.s-1","parameterCategory":1,"la1":30.2991,"la2":30.254,"lo1":-89.0895,"lo2":-89.0444,"dy":0.0017,"dx":0.0017,"nx":28,"ny":28,"refTime":"2024-11-25T09:00:00:Z","depth":0,"parameterNumber":2,"parameterNumberName":"U-component_of_WINDS"},"data":[0,0,0,0,0,0,0,0,0,0,0,0,0,0,0,0,0,0,0,0,0,0,0,0,0,0,0,0,0,0,0,0,0,0,0,0,0,0,0,0,0,0,0,0,0,0,0,0,0,0,0,0,0,0,0,0,0,0,2.0361,2.0362,0,2.0425,2.0425,2.0426,2.042,2.0419,2.0418,2.0417,2.0482,2.0485,2.0487,0,0,0,0,0,0,0,0,0,0,0,0,0,2.0235,2.0238,2.0361,2.0362,2.0362,2.0424,2.0425,2.0426,2.042,2.0419,2.0417,2.0416,2.0481,2.0484,2.0488,0,0,0,0,0,0,0,0,0,0,0,0,0,2.0293,2.0238,2.0361,2.0367,2.0368,2.0424,2.0425,2.0426,2.042,2.0419,2.0417,2.0416,2.048,2.0484,2.0488,2.0543,0,0,2.05,2.0502,0,0,0,0,0,0,0,0,2.029,2.0298,2.0365,2.0366,2.0368,2.0413,2.0405,2.0465,2.0421,2.04,2.0417,2.0415,2.046,2.0466,2.0481,2.0546,2.0548,2.0501,2.0503,2.0505,2.0506,0,0,0,0,0,0,0,2.0286,2.0295,2.0386,2.0366,2.0368,2.0367,2.0373,2.0416,2.0438,2.0402,2.0402,2.0409,2.0461,2.0477,2.0483,2.0549,2.0501,2.0504,2.0507,2.0508,2.0664,2.0666,0,0,0,0,0,0,2.0281,2.0292,2.0384,2.0388,2.0325,2.037,2.0378,2.04,2.0437,2.0442,2.041,2.0409,2.0471,2.0478,2.0485,2.0553,2.0505,2.0509,2.0511,2.0663,2.0665,2.0667,0,0,0,0,0,0,2.0278,2.0289,2.0381,2.034,2.0352,2.0374,2.0399,2.0402,2.0418,2.0444,2.0448,2.0423,2.047,2.0479,2.0529,2.0555,2.051,2.0514,2.0661,2.0663,2.0666,2.0687,0,0,0,0,0,0,2.0274,2.0288,2.0308,2.034,2.0354,2.0424,2.04,2.0404,2.0425,2.0424,2.0457,2.0461,2.047,2.0523,2.0533,2.0559,2.0517,2.0658,2.0662,2.0665,2.0685,2.0691,2.0696,0,0,0,0,0,2.027,2.0311,2.0309,2.032,2.038,2.0425,2.0433,2.0442,2.0427,2.0448,2.0465,2.046,2.055,2.0528,2.0539,2.0567,2.0657,2.0661,2.0665,2.0682,2.0689,2.0696,0,0,0,0,0,0,2.0281,2.0316,2.0314,2.0367,2.0393,2.0424,2.0451,2.0449,2.0481,2.0478,2.0488,2.0496,2.0546,2.0562,2.0536,2.0623,2.0602,2.0608,2.0611,2.0618,2.0624,2.0619,2.052,0,0,0,0,0,2.029,2.0324,2.0352,2.0396,2.041,2.0428,2.0448,2.0453,2.0481,2.0492,2.0512,2.054,2.0575,2.0597,2.063,2.0687,2.0695,2.0712,2.0718,2.0722,2.0727,2.076,2.0769,2.068,2.068,2.068,0,0,2.0308,2.0331,2.0352,2.0399,2.042,2.0456,2.0438,2.0475,2.0502,2.0498,2.0546,2.0562,2.0594,2.0648,2.0672,2.0662,2.0754,2.0727,2.073,2.0733,2.0765,2.0774,2.0781,2.0682,2.0682,2.0681,0,0,2.036,2.038,2.042,2.0442,2.0474,2.0487,2.0496,2.0528,2.0539,2.0588,2.0586,2.0618,2.0677,2.07,2.072,2.0783,2.0779,2.0793,2.0822,2.0854,2.0861,2.0867,2.0891,2.0899,2.0798,2.0799,2.0799,0,2.0378,2.0431,2.0441,2.048,2.0501,2.05,2.0541,2.0562,2.0603,2.0619,2.0607,2.0683,2.0703,2.0763,2.0779,2.0794,2.0807,2.0789,2.0859,2.0866,2.0872,2.0894,2.0903,2.08,2.08,2.08,2.08,0,2.0453,2.049,2.0519,2.056,2.0584,2.0624,2.064,2.0665,2.0668,2.0682,2.0733,2.0758,2.0798,2.0812,2.0815,2.0873,2.0866,2.0857,2.0835,2.0882,2.0903,2.0912,2.0802,2.0802,2.0801,2.0801,0,0,2.0513,2.056,2.057,2.0589,2.0626,2.0655,2.0696,2.0734,2.0755,2.0785,2.082,2.0871,2.0863,2.0885,2.0891,2.0919,2.097,2.0907,2.0908,2.0918,2.1037,2.1044,2.1054,2.0968,2.097,2.0971,2.1035,0,2.0568,2.064,2.065,2.0714,2.0749,2.0749,2.0785,2.0812,2.0826,2.0859,2.0875,2.0912,2.0898,2.0911,2.0939,2.0957,2.0994,2.0953,2.1001,2.1003,2.0994,2.1065,2.1072,2.1131,2.1043,2.1044,2.1045,0,2.0643,2.0675,2.0742,2.0776,2.0791,2.0822,2.086,2.0891,2.0922,2.0931,2.0957,2.096,2.1003,2.098,2.1041,2.1013,2.1034,2.1046,2.1048,2.1053,2.1027,2.1073,2.115,2.1159,2.1059,2.1058,2.1057,0,2.0681,2.0741,2.0789,2.0806,2.0846,2.0868,2.0886,2.0916,2.0939,2.0972,2.0988,2.1025,2.1046,2.1075,2.1089,2.1071,2.115,2.1127,2.1159,2.1159,2.1175,2.1174,2.1258,2.1188,2.1188,2.1187,2.1187,0,2.0742,2.0784,2.0807,2.0837,2.0883,2.0896,2.0942,2.0959,2.0986,2.102,2.1022,2.1054,2.1071,2.1105,2.1117,2.1166,2.1175,2.1184,2.1187,2.1184,2.1183,2.1198,2.1194,2.119,2.1189,2.1189,2.1188,0,2.0792,2.081,2.0862,2.0897,2.0906,2.094,2.0969,2.0999,2.1014,2.1057,2.1068,2.1092,2.1133,2.115,2.12,2.1208,2.1265,2.1264,2.1254,2.1255,2.1286,2.1284,2.1383,2.1397,2.1317,2.1318,2.1318,0,2.0831,2.0863,2.0901,2.0924,2.0943,2.0979,2.1004,2.1018,2.1043,2.1082,2.1107,2.1148,2.1182,2.1248,2.127,2.131,2.131,2.1342,2.1316,2.1313,2.1312,2.131,2.1314,2.1347,2.1348,2.1349,2.1349,0,2.0898,2.0905,2.0939,2.0978,2.1007,2.1037,2.1067,2.1086,2.1105,2.1134,2.1176,2.1202,2.1255,2.1296,2.1337,2.1356,2.1357,2.1357,2.1367,2.1365,2.1359,2.1364,2.1268,2.1355,2.1354,2.1354,2.1354,2.1353,2.0944,2.0973,2.1005,2.1044,2.1068,2.1096,2.1126,2.1146,2.1181,2.1225,2.1231,2.1277,2.131,2.1364,2.1386,2.1422,2.1414,2.1428,2.1431,2.1435,2.1437,2.1353,2.143,2.1429,2.1429,2.1429,2.1429,0,2.1011,2.1032,2.1068,2.1111,2.1142,2.114,2.1173,2.12,2.124,2.127,2.1304,2.1353,2.1394,2.142,2.1462,2.1486,2.1488,2.1497,2.1495,2.15,2.1441,2.1429,2.1495,2.1495,2.1495,2.1495,2.1495,2.1495,2.105,2.11,2.1111,2.1174,2.1194,2.1239,2.1259,2.1286,2.131,2.1366,2.14,2.1417,2.1446,2.149,2.1528,2.1534,2.155,2.156,2.1566,2.1511,2.1504,2.1498,2.1486,2.1563,2.1563,2.1622,2.1623,2.1623]},{"header":{"parameterUnit":"m.s-1","parameterCategory":1,"la1":30.2991,"la2":30.254,"lo1":-89.0895,"lo2":-89.0444,"dy":0.0017,"dx":0.0017,"nx":28,"ny":28,"refTime":"2024-11-25T09:00:00:Z","depth":0,"parameterNumber":3,"parameterNumberName":"V-component_of_WINDS"},"data":[0,0,0,0,0,0,0,0,0,0,0,0,0,0,0,0,0,0,0,0,0,0,0,0,0,0,0,0,0,0,0,0,0,0,0,0,0,0,0,0,0,0,0,0,0,0,0,0,0,0,0,0,0,0,0,0,0,0,-4.079,-4.0791,0,-4.0898,-4.0899,-4.09,-4.0927,-4.0926,-4.0925,-4.0925,-4.1029,-4.1032,-4.1036,0,0,0,0,0,0,0,0,0,0,0,0,0,-4.0603,-4.0606,-4.079,-4.0791,-4.0793,-4.0898,-4.0899,-4.0901,-4.0927,-4.0926,-4.0925,-4.0924,-4.1028,-4.1032,-4.1036,0,0,0,0,0,0,0,0,0,0,0,0,0,-4.0695,-4.0607,-4.079,-4.0818,-4.0822,-4.0897,-4.0899,-4.0901,-4.0927,-4.0926,-4.0925,-4.0924,-4.1026,-4.1031,-4.1036,-4.1089,0,0,-4.1052,-4.1054,0,0,0,0,0,0,0,0,-4.0689,-4.0701,-4.0813,-4.0817,-4.0821,-4.0898,-4.0871,-4.0964,-4.0927,-4.0887,-4.0925,-4.0923,-4.0986,-4.0994,-4.1016,-4.1094,-4.1098,-4.1052,-4.1056,-4.1058,-4.1059,0,0,0,0,0,0,0,-4.0683,-4.0697,-4.0832,-4.0814,-4.0819,-4.0825,-4.0837,-4.0889,-4.094,-4.089,-4.0893,-4.0905,-4.0988,-4.1011,-4.1019,-4.11,-4.1052,-4.1057,-4.106,-4.1062,-4.1227,-4.1229,0,0,0,0,0,0,-4.0672,-4.0691,-4.0829,-4.0836,-4.0751,-4.0829,-4.0842,-4.0874,-4.094,-4.0949,-4.0906,-4.0906,-4.1003,-4.1013,-4.1023,-4.109,-4.1058,-4.1063,-4.1066,-4.1226,-4.1228,-4.1229,0,0,0,0,0,0,-4.0668,-4.0684,-4.0825,-4.0764,-4.0783,-4.0833,-4.0869,-4.0877,-4.0901,-4.0952,-4.0961,-4.0921,-4.1003,-4.1016,-4.1073,-4.1094,-4.1065,-4.107,-4.1225,-4.1227,-4.1228,-4.1223,0,0,0,0,0,0,-4.0663,-4.0683,-4.0704,-4.0765,-4.0786,-4.0874,-4.087,-4.088,-4.091,-4.0911,-4.0969,-4.0977,-4.1003,-4.1065,-4.1078,-4.11,-4.1074,-4.1223,-4.1225,-4.1228,-4.1221,-4.1224,-4.1227,0,0,0,0,0,-4.0656,-4.0696,-4.0704,-4.0721,-4.0813,-4.0875,-4.0887,-4.0918,-4.0912,-4.0933,-4.0967,-4.0975,-4.109,-4.1071,-4.1086,-4.1109,-4.1222,-4.1225,-4.1228,-4.122,-4.1224,-4.1227,0,0,0,0,0,0,-4.0633,-4.0704,-4.0714,-4.0776,-4.082,-4.088,-4.0907,-4.092,-4.0965,-4.0964,-4.0999,-4.1011,-4.1067,-4.1094,-4.1072,-4.1165,-4.1155,-4.1161,-4.1145,-4.1149,-4.1151,-4.1143,-4.1078,0,0,0,0,0,-4.0635,-4.0681,-4.074,-4.0789,-4.0811,-4.0855,-4.0883,-4.0904,-4.095,-4.0967,-4.1005,-4.1048,-4.1094,-4.1123,-4.1168,-4.1226,-4.1239,-4.125,-4.1253,-4.1255,-4.1259,-4.1294,-4.1299,-4.1239,-4.1239,-4.1239,0,0,-4.0639,-4.0684,-4.0711,-4.0785,-4.0822,-4.0868,-4.087,-4.0918,-4.0952,-4.0974,-4.1032,-4.1061,-4.1111,-4.117,-4.1197,-4.1194,-4.1279,-4.1259,-4.126,-4.1263,-4.1297,-4.1303,-4.1308,-4.1241,-4.1241,-4.124,0,0,-4.0671,-4.071,-4.0755,-4.0793,-4.0849,-4.088,-4.0891,-4.095,-4.0971,-4.103,-4.1048,-4.1089,-4.1166,-4.1202,-4.123,-4.128,-4.129,-4.1294,-4.1307,-4.1341,-4.1345,-4.135,-4.1368,-4.1374,-4.1298,-4.1298,-4.1298,0,-4.0669,-4.074,-4.0776,-4.0825,-4.0857,-4.0883,-4.0929,-4.0963,-4.103,-4.1051,-4.1047,-4.1148,-4.1183,-4.1251,-4.1264,-4.1286,-4.1299,-4.1286,-4.1342,-4.1347,-4.1352,-4.1369,-4.1376,-4.1298,-4.1298,-4.1298,-4.1298,0,-4.0735,-4.0785,-4.0815,-4.0883,-4.0919,-4.0965,-4.1007,-4.1039,-4.1058,-4.1088,-4.1149,-4.1193,-4.1248,-4.1266,-4.1283,-4.1337,-4.1334,-4.1336,-4.1327,-4.1357,-4.1374,-4.1381,-4.1298,-4.1298,-4.1298,-4.1298,0,0,-4.0752,-4.0843,-4.0853,-4.0885,-4.0951,-4.0989,-4.1038,-4.1095,-4.1122,-4.1168,-4.1209,-4.1277,-4.128,-4.1312,-4.1334,-4.1363,-4.1401,-4.1362,-4.1363,-4.1367,-4.1464,-4.1462,-4.1469,-4.1409,-4.141,-4.1411,-4.146,0,-4.0792,-4.0882,-4.0917,-4.0989,-4.1036,-4.1063,-4.1105,-4.115,-4.118,-4.1223,-4.1256,-4.1304,-4.1304,-4.1324,-4.1355,-4.139,-4.142,-4.1387,-4.1446,-4.1448,-4.1432,-4.1478,-4.1476,-4.152,-4.1467,-4.1468,-4.1469,0,-4.0849,-4.09,-4.0978,-4.1041,-4.1062,-4.11,-4.1156,-4.1198,-4.1249,-4.1269,-4.1307,-4.1328,-4.1379,-4.1369,-4.144,-4.1417,-4.1443,-4.1464,-4.1467,-4.1473,-4.1459,-4.1485,-4.1534,-4.1541,-4.148,-4.1479,-4.1478,0,-4.0854,-4.0942,-4.1,-4.1027,-4.1102,-4.1128,-4.116,-4.1211,-4.1244,-4.1293,-4.1315,-4.1368,-4.1397,-4.1437,-4.1472,-4.1461,-4.154,-4.1532,-4.1557,-4.1557,-4.1571,-4.157,-4.1625,-4.159,-4.159,-4.1589,-4.1589,0,-4.0895,-4.0941,-4.1004,-4.104,-4.1093,-4.1134,-4.1185,-4.1219,-4.1265,-4.1307,-4.1333,-4.1371,-4.1415,-4.1459,-4.1487,-4.1542,-4.1555,-4.1572,-4.1578,-4.1569,-4.1567,-4.1586,-4.1584,-4.1591,-4.1591,-4.159,-4.159,0,-4.0908,-4.0952,-4.1018,-4.1085,-4.1104,-4.114,-4.1197,-4.1232,-4.1266,-4.1319,-4.1334,-4.1385,-4.1439,-4.1479,-4.1547,-4.1565,-4.1625,-4.1631,-4.1608,-4.1611,-4.1634,-4.1631,-4.1703,-4.1715,-4.1672,-4.1672,-4.1672,0,-4.093,-4.0967,-4.104,-4.1072,-4.1105,-4.1155,-4.119,-4.1232,-4.1267,-4.1331,-4.1359,-4.1415,-4.1463,-4.1547,-4.159,-4.1643,-4.1651,-4.1672,-4.1658,-4.1649,-4.1651,-4.1648,-4.1652,-4.1673,-4.1674,-4.1674,-4.1674,0,-4.0965,-4.0987,-4.1037,-4.1096,-4.1138,-4.1186,-4.1234,-4.1258,-4.1309,-4.1347,-4.1404,-4.1441,-4.1514,-4.1569,-4.1627,-4.1659,-4.1675,-4.1679,-4.1688,-4.1678,-4.1663,-4.1672,-4.1613,-4.1676,-4.1676,-4.1676,-4.1676,-4.1676,-4.0984,-4.1019,-4.1077,-4.1133,-4.1175,-4.122,-4.1258,-4.1298,-4.1347,-4.1411,-4.1432,-4.1492,-4.1544,-4.1625,-4.1657,-4.1704,-4.1703,-4.1715,-4.1718,-4.172,-4.172,-4.1657,-4.1714,-4.1714,-4.1714,-4.1714,-4.1714,0,-4.102,-4.106,-4.1112,-4.118,-4.1225,-4.124,-4.1295,-4.133,-4.1383,-4.1432,-4.148,-4.1546,-4.1601,-4.165,-4.1707,-4.1734,-4.1743,-4.1748,-4.1746,-4.1753,-4.1717,-4.1704,-4.174,-4.174,-4.174,-4.174,-4.174,-4.174,-4.1044,-4.1106,-4.1134,-4.1216,-4.1255,-4.1316,-4.1346,-4.1388,-4.1428,-4.1502,-4.1549,-4.1582,-4.1631,-4.1692,-4.1743,-4.1756,-4.1775,-4.1778,-4.1793,-4.1758,-4.1755,-4.1752,-4.174,-4.1782,-4.1782,-4.1824,-4.1825,-4.1825]}]]